Погода в Пороге

Россия / Иркутская область     54°33′24″N   99°14′53″E
темп.,
°C
ветер,
м/с
пор.,
м/с
влажн.,
%
обл.,
%
осадки,
мм/ч
давл.,
гПа
погр.,
м
30 июня, чт
чт3023:00+13ююв228672 0.0 100716
02:00+12ю22960 0.0 100625
05:00+11ю22961 0.0 100626
08:00+18ююв23680 0.0 1004314
11:00+25юв34410 0.0 1002885
14:00+30вюв34260 0.0 10002526
17:00+31вюв55252 0.0 9992025
20:00+26юв38402 0.0 999426
1 июля, пт
пт123:00+17ю11745 0.0 100111
02:00+16юз117724 0.0 100113
05:00+13зсз118682 0.0 100331
08:00+18с237114 0.0 1003484
11:00+23ссв225599 0.0 1001957
14:00+26с2244100 0.0 10001433
17:00+25с4450100 0.0 10001231
20:00+18ссв368475 0.5 1003516
2 июля, сб
сб223:00+15ссз1499100 2.3 1004244
02:00+14с2699100 3.3 1004424
05:00+13ссз2699100 5.6 1005409
08:00+13з1298100 7.2 1006178
11:00+14юз1197100 2.6 1006130
14:00+17юз0182100 4.9 1006598
17:00+15з2294100 1.6 100656
20:00+14зюз2597100 2.1 1008211
3 июля, вс
вс323:00+12зюз1298100 1.9 100970
02:00+12юз1198100 4.8 100945
05:00+11зюз1196100 0.5 100914
08:00+12зюз1298100 2.3 101081
11:00+13ююз239388 0.3 1010191
14:00+22з014575 0.4 10071808
17:00+17ссв337142 0.9 1007585
20:00+16ссз1286100 2.7 100850
4 июля, пн
пн423:00+12зюз1192100 0.3 100811
02:00+11зюз1193100 0.3 100711
05:00+11зюз1193100 0.0 100610
08:00+14св0088100 0.1 1006152
11:00+18св1267100 0.7 1005797
14:00+21св2244100 0.7 10021869
17:00+21св234797 0.0 10011086
20:00+18в1165100 0.0 100124